Starlink 6270

operational
NORAD ID: 56421 Int'l Des: 2023-061 Owner: SPXS Country: US Constellation: starlink
LEOCIRCULAR

关于 Starlink 6270

正在加载描述...

实时位置

正在加载3D地球...

即将过境

高度历史

Altitude vs Time

uPlot chart will show altitude changes over time

两行轨道根数

1 56421U 23061AZ 25260.07632933 .00000182 00000-0 28511-4 0 9990
2 56421 43.0031 35.2542 0001161 270.4356 89.6353 15.02534164130939
Epoch: Sep 17, 2025 • Age: 37 hours

当前状态

高度 559.9 km
速度 7.59 km/s
星下点 28.74°N, 155.97°W
发射日期 May 4, 2023
运行时间 2.3 years
类型 internet

技术详情

分类 Payload
质量 305.00 kg
干质量 290.00 kg
总质量 305.00 kg
长度 0.20 m
直径 2.80 m
跨度 9.00 m
形状 Box + pan
制造商 SPXS
平台类型 Starlink
阶段状态 In Orbit
所有者/国家 SPXS/US

大型星座

Loading constellations...